"Pseudo-MPEC" for C0J79D5

Created 2023 Sep 19 21:22:06 UT using Find_Orb

Click here for an explanation of pseudo-MPECs

 
 Astrometry: 
     C0J79D5* C2023 09 18.35565600 37 46.924+32 50 10.68   ~9I9M 19.80GVNEOCPV00
     C0J79D5  C2023 09 18.36115800 37 47.248+32 48 48.96   ~9I9M 19.81GVNEOCPV00
     C0J79D5  C2023 09 18.36666200 37 47.554+32 47 27.28   ~9I9M 19.81GVNEOCPV00
     C0J79D5  C2023 09 18.37216300 37 47.881+32 46 05.59   ~9I9M 19.82GVNEOCPV00
     C0J79D5 KC2023 09 18.45420 00 37 53.24 +32 25 54.5    ~9IBb 19.6 RoNEOCP291
     C0J79D5 KC2023 09 18.45513 00 37 53.32 +32 25 40.7    ~9IBb 19.5 RoNEOCP291
     C0J79D5 KC2023 09 18.45605 00 37 53.38 +32 25 27.1    ~9IBb 19.5 RoNEOCP291
     C0J79D5 1C2023 09 18.82740 00 39 00.86 +31 01 18.3    ~9IKM 21.0 VXNEOCP033
     C0J79D5 1C2023 09 18.82787 00 39 00.90 +31 01 12.3    ~9IKM 21.0 VXNEOCP033
     C0J79D5 1C2023 09 18.82834 00 39 00.95 +31 01 06.6    ~9IKM 21.0 VXNEOCP033
     C0J79D5 1C2023 09 18.82912 00 39 01.01 +31 00 57.4    ~9IKM 20.9 VXNEOCP033
     C0J79D5 KC2023 09 19Uk.Ky811xZ?1Astrometry3$AEA@4ITkv:!R'\T\M-.s8,S1q@5mH21
     C0J79D5 KC2023 09 19@V3.%3bJcYdeek!s'N5iUwG]IXUiGc#5L\h,fGredacted;K+3p,H21
     C0J79D5 KC2023 09 19,R4vACs7jW`f)IhmW?b3-Iy/N*BDj(v%$qHR.mcnoOxsqES(p;%?H21
     C0J79D5 mC2023 09 19.36156400 39 48.812+29 20 45.53   ~9J97 20.27GVNEOCPV00
     C0J79D5 mC2023 09 19.36378700 39 48.856+29 20 22.02   ~9J97 20.13GVNEOCPV00
     C0J79D5  C2023 09 19.36551000 39 48.899+29 20 03.55   ~9JCq 20.21GVNEOCPV00
     C0J79D5 mC2023 09 19.36599700 39 48.906+29 19 58.62   ~9J97 20.12GVNEOCPV00
     C0J79D5 mC2023 09 19.36820800 39 48.956+29 19 35.26   ~9J97 19.88GVNEOCPV00
     C0J79D5  C2023 09 19.37175000 39 49.028+29 18 57.74   ~9JCq 20.23GVNEOCPV00
     C0J79D5  C2023 09 19.37725500 39 49.180+29 17 58.38   ~9JCq       VNEOCPV00
     C0J79D5  C2023 09 19.38275500 39 49.288+29 17 01.54   ~9JCq 20.18GVNEOCPV00
     C0J79D5 KC2023 09 19;4my0kj9hIq_q#Hdf4;naf9:n1007)KKP$\BHOdqF#iJK-6Bu,6\587
     C0J79D5 KC2023 09 19r*QA;aQREclickVXuZnq]Chere5TC9Cm+^`DQcp5n7PUh]Txo*3c587
     C0J79D5 KC2023 09 19Up,kJO^HwS5=3YnPO)Dg3T/J..s8A\HkB9;Lw=#SJ8p^forq4!YAL06
     C0J79D5 KC2023 09 19igQmu9gh4#6%F)tLZ8O3bA^Fl5l$H4G5e:dX'Rl+Bq+%kW_)`sF'587
     C0J79D5 KC2023 09 19WFs3[?k]S8LexplanationrS7PZCB?fmJk_[+Bu$hV55)JInbV`4L06
     C0J79D5 KB2023 09 19.82196900 40 40.15 +28 04 08.2    ~9JK7 20.1 GVNEOCPI93
     C0J79D5 KB2023 09 19.82585100 40 40.40 +28 03 35.0    ~9JK7 19.9 GVNEOCPI93
     C0J79D5 KB2023 09 19.82958500 40 40.62 +28 03 02.1    ~9JK7 19.8 GVNEOCPI93

Station data:
(033) Karl Schwarzschild Observatory, Tautenburg  (N50.980137 E11.711240)
   Germany.  Observer B. Stecklum. 1.34-m f/3 Schmidt + CCD.
(291) LPL/Spacewatch II  (N31.961669 W111.599905)  US/Arizona.  Observers J.
   V. Scotti, R. S. McMillan. 1.8-m f/2.7 reflector + CCD.
(587) Sormano  (N45.882946 E9.229180)  Italy.  Observers E. Colzani, E. Valli.
    Measurer P. Sicoli. 0.5-m f/6.8 reflector + CCD.
(H21) Astronomical Research Observatory, Westfield  (N39.483054 W87.968270)
   US/Illinois.  Observer R. Holmes. Measurers S. Foglia, L. Buzzi, T.
   Linder, R. Holmes. 0.76-m f/3.0 astrograph + CCD0.81-m f/4.0 astrograph +
   CCD0.61-m f/4.5 astrograph + CCD0.40-m f/5.32 astrograph + CCD.
(I93) St Pardon de Conques  (N44.558708 W0.203000)  France.  Observers F.
   Losse, W. D'Anna. Measurer F. Losse. 0.40-m f/3.7 reflector + CCD.
(L06) Sormano 2 Observatory, Bellagio Via Lattea  (N45.970100 E9.254030)
   Italy.  Observer G. Ventre. Measurers G. Ventre, P. Sicoli. 0.28-m f/10
   reflector + CCD.
(V00) Kitt Peak-Bok  (N31.963125 W111.600190)  US/Arizona.  Observers T. A.
   Pruyne, B. M. Africano, E. J. Christensen, G. A. Farneth, D. C. Fuls, A.
   R. Gibbs, A. D. Grauer, H. Gröller, J. A. Johnson, R. A. Kowalski, S. M.
   Larson, G. J. Leonard, D. Rankin, R. L. Seaman, F. C. Shelly, K. W.
   Wierzchoś. 2.25-m reflector + 4x4K mosaic CCD.

Orbital elements:  C0J79D5
   Perihelion 2023 Aug 10.34372 +/- 0.0113 TT =  8:14:57 (JD 2460166.84372)
Epoch 2023 Sep 19.0 TT = JDT 2460206.5   Earth MOID: 0.0138   Ma: 0.0643
M  10.22066988 +/- 0.038            (J2000 ecliptic)             AutoNEOCP
n   0.25773140 +/- 0.000903         Peri.  331.28857 +/- 0.019
a   2.44544455 +/- 0.00571          Node   330.77803 +/- 0.020
e   0.6438030 +/- 0.000885          Incl.    2.29968 +/- 0.0024
P   3.82                   H 25.54  G  0.15   U  8.0
q 0.87105994 +/- 0.000131    Q 4.01982916 +/- 0.0115
From 30 observations 2023 Sept. 18-19 (35.4 hr); mean residual 0".27
Residuals in arcseconds: 
230918 V00  .00   .20-    230918 033  .07-  .08+    230919 V00  .22+  1.2-    
230918 V00  .06+  .16-    230919 H21  .03-  .34+    230919 V00  .04-  .09+    
230918 V00  .12-  .10-    230919 H21  .19-  .04+    230919 587  .41-  .31-    
230918 V00  .04-  .14-    230919 H21  .30-  .07+    230919 587  .00   .30-    
230918 291  .04+  .28+    230919 V00  .00   .08+    230919 L06  .46+  .54+    
230918 291  .16+  .14+    230919 V00  .06-  .08+    230919 587  .34+  .42-    
230918 291  .04+  .05+    230919 V00  .00   .17-    230919 L06  .58+  .14+    
230918 033  .01+  .10+    230919 V00  .05-  .04+    230919 I93  .15-  .38-    
230918 033  .03-  .19-    230919 V00  .03-  .06+    230919 I93  .19-  .45+    
230918 033  .07+  .19-    230919 V00  .13-  .02-    230919 I93  .42-  .26+    

Ephemerides (geocentric):
Date (UTC) HH   RA             Dec           delta  r     elong  mag " sig PA
---- --------  ------------   ------------  ------ ------ -----  --- --------
2023 09 19 21  00 40 35.364   +27 57 40.30  .05125 1.0483 147.9 20.5 .161 130
2023 09 19 22  00 40 38.659   +27 51 27.70  .05157 1.0486 148.0 20.5 .166 130
2023 09 19 23  00 40 41.904   +27 45 19.58  .05190 1.0490 148.1 20.5 .171 130
2023 09 20 00  00 40 45.099   +27 39 15.86  .05222 1.0493 148.2 20.5 .176 130
2023 09 20 01  00 40 48.246   +27 33 16.46  .05254 1.0496 148.3 20.6 .181 130
2023 09 20 02  00 40 51.345   +27 27 21.30  .05286 1.0499 148.4 20.6 .186 130
2023 09 20 03  00 40 54.397   +27 21 30.31  .05318 1.0502 148.5 20.6 .191 129
2023 09 20 04  00 40 57.404   +27 15 43.42  .05350 1.0506 148.6 20.6 .196 129
2023 09 20 05  00 41 00.366   +27 10 00.55  .05382 1.0509 148.8 20.6 .200 129
2023 09 20 06  00 41 03.284   +27 04 21.64  .05414 1.0512 148.9 20.6 .205 129
2023 09 20 07  00 41 06.158   +26 58 46.62  .05447 1.0515 149.0 20.6 .210 129
2023 09 20 08  00 41 08.991   +26 53 15.41  .05479 1.0518 149.1 20.6 .215 129
2023 09 20 09  00 41 11.783   +26 47 47.97  .05511 1.0521 149.2 20.6 .220 129
2023 09 20 10  00 41 14.533   +26 42 24.21  .05543 1.0525 149.3 20.6 .224 129
2023 09 20 11  00 41 17.244   +26 37 04.09  .05575 1.0528 149.4 20.7 .229 129
2023 09 20 12  00 41 19.916   +26 31 47.53  .05608 1.0531 149.5 20.7 .234 130
2023 09 20 13  00 41 22.550   +26 26 34.49  .05640 1.0534 149.6 20.7 .238 130
2023 09 20 14  00 41 25.146   +26 21 24.89  .05672 1.0537 149.7 20.7 .243 130
2023 09 20 15  00 41 27.705   +26 16 18.69  .05705 1.0541 149.8 20.7 .247 130
2023 09 20 16  00 41 30.229   +26 11 15.83  .05737 1.0544 149.9 20.7 .252 130
2023 09 20 17  00 41 32.716   +26 06 16.25  .05769 1.0547 150.0 20.7 .256 130
2023 09 20 18  00 41 35.169   +26 01 19.91  .05802 1.0550 150.1 20.7 .261 130
2023 09 20 19  00 41 37.587   +25 56 26.74  .05834 1.0553 150.2 20.7 .265 130
2023 09 20 20  00 41 39.972   +25 51 36.69  .05867 1.0557 150.3 20.7 .270 130
2023 09 20 21  00 41 42.324   +25 46 49.73  .05899 1.0560 150.4 20.8 .274 130
2023 09 20 22  00 41 44.644   +25 42 05.79  .05931 1.0563 150.5 20.8 .279 130
2023 09 20 23  00 41 46.931   +25 37 24.83  .05964 1.0566 150.6 20.8 .283 130
2023 09 21 00  00 41 49.188   +25 32 46.81  .05996 1.0570 150.7 20.8 .287 130
2023 09 21 01  00 41 51.413   +25 28 11.66  .06029 1.0573 150.8 20.8 .292 130
2023 09 21 02  00 41 53.609   +25 23 39.37  .06061 1.0576 150.9 20.8 .296 130
2023 09 21 03  00 41 55.775   +25 19 09.86  .06094 1.0579 151.0 20.8 .300 130
2023 09 21 04  00 41 57.912   +25 14 43.11  .06126 1.0582 151.1 20.8 .304 130
2023 09 21 05  00 42 00.020   +25 10 19.07  .06159 1.0586 151.2 20.8 .308 130
2023 09 21 06  00 42 02.100   +25 05 57.70  .06191 1.0589 151.3 20.8 .313 131
2023 09 21 07  00 42 04.152   +25 01 38.96  .06224 1.0592 151.3 20.8 .317 131
2023 09 21 08  00 42 06.177   +24 57 22.81  .06257 1.0595 151.4 20.9 .321 131
2023 09 21 09  00 42 08.175   +24 53 09.20  .06289 1.0599 151.5 20.9 .325 131
2023 09 21 10  00 42 10.147   +24 48 58.10  .06322 1.0602 151.6 20.9 .329 131
2023 09 21 11  00 42 12.093   +24 44 49.48  .06354 1.0605 151.7 20.9 .333 131
2023 09 21 12  00 42 14.014   +24 40 43.29  .06387 1.0608 151.8 20.9 .337 131
2023 09 21 13  00 42 15.910   +24 36 39.51  .06420 1.0612 151.9 20.9 .341 131
2023 09 21 14  00 42 17.781   +24 32 38.08  .06452 1.0615 152.0 20.9 .345 131
2023 09 21 15  00 42 19.628   +24 28 38.99  .06485 1.0618 152.0 20.9 .348 131
2023 09 21 16  00 42 21.451   +24 24 42.18  .06518 1.0621 152.1 20.9 .352 131
2023 09 21 17  00 42 23.250   +24 20 47.64  .06550 1.0624 152.2 20.9 .356 131
2023 09 21 18  00 42 25.027   +24 16 55.33  .06583 1.0628 152.3 20.9 .360 131
2023 09 21 19  00 42 26.781   +24 13 05.22  .06616 1.0631 152.4 21.0 .364 131
2023 09 21 20  00 42 28.512   +24 09 17.26  .06649 1.0634 152.5 21.0 .367 132